{"data":{"norad_id":67739,"intl_designator":"2026-026U","name":"STARLINK-36329","alt_names":[],"object_type":"PAYLOAD","status":"ACTIVE","operator":null,"country":"US","launch_date":"2026-02-11","launch_site_code":"AFWTR","launch_vehicle":null,"mission":null,"orbit_class":"UNKNOWN","rcs_meters":null,"size_class":null,"mass_kg":null,"dimensions":null,"purposes":["comms"],"wikipedia_slug":null,"has_3d_model":false,"image_url":null,"decayed_at":null,"tle_current":{"epoch":"2026-09-18T22:08:54.612384Z","epoch_age_seconds":202738,"freshness":"STALE","line1":"1 67739U 26026U   26261.92285431  .00015740  00000+0  48888-3 0  9994","line2":"2 67739  97.2872 313.8484 0001079  71.0731 289.0629 15.33444131 33748","mean_motion":15.33444131,"eccentricity":0.0001079,"inclination_deg":97.2872,"raan_deg":313.8484,"arg_perigee_deg":71.0731,"mean_anomaly_deg":289.0629,"bstar":0.00048888,"rev_number":3374,"period_min":93.90625787331,"perigee_km":464.80732664215,"apogee_km":466.28419338176,"semimajor_km":6843.682760012,"source":"CELESTRAK","updated_at":"2026-09-20T09:00:43.660187Z"}}}